Lid_Strength_Index
1 1 1 1 1 1 1 1 1 1 1 1 0 -0 -0 -0 0 1 2 -0 4 8 6 4 5 7 7 7 10 7 9 8 9 12 12 11 12 10 11 10 12 13 13 14 12 15 17 6 7 10 8 6 5 5
2 1 1 1 1 2 1 1 1 1 1 1 1 0 0 0 0 1 3 0 0 6 6 3 4 3 4 5 6 6 7 8 7 9 9 9 11 9 10 13 8 13 9 11 10 11 7 6 6 5 5 6 5 5
1 1 1 1 2 2 2 2 2 1 1 1 1 1 1 0 0 1 2 1 3 7 8 6 6 3 2 3 2 7 6 5 6 4 7 8 11 8 12 11 9 7 6 9 9 7 6 5 5 5 4 5 4 4
1 1 1 1 1 2 2 2 2 2 2 1 1 1 1 0 -0 0 3 2 4 6 10 8 3 4 2 2 3 3 4 4 4 4 7 8 10 7 9 8 9 7 7 8 8 6 6 5 5 5 5 4 5 4
1 1 1 0 0 1 1 1 2 2 2 2 2 1 1 0 -0 1 2 2 2 5 9 8 5 5 3 3 4 4 4 5 6 8 9 10 7 8 7 7 9 7 8 9 10 7 7 7 5 6 6 6 6 7
0 0 0 0 0 0 1 1 1 1 1 1 1 2 2 1 1 4 8 3 2 2 7 10 5 6 5 4 5 5 4 5 6 8 9 7 5 7 10 10 7 6 6 6 7 6 6 5 5 7 7 7 8 8
0 0 1 0 0 0 0 0 0 1 1 1 1 1 1 2 3 6 6 3 2 2 7 9 8 5 5 5 4 5 4 5 6 7 8 8 7 7 10 11 10 10 9 8 8 9 7 8 8 8 9 9 9 9
1 1 1 0 1 0 0 0 0 0 0 1 1 1 1 1 2 4 1 2 2 5 5 9 9 7 4 7 7 4 6 6 8 8 7 8 7 8 12 13 11 10 10 9 10 9 10 9 10 10 10 10 10 11
1 1 1 1 1 1 0 0 0 0 0 0 0 -0 1 3 5 3 1 1 0 4 8 8 10 11 4 6 5 6 6 10 7 9 9 8 10 12 15 13 13 13 13 12 10 9 9 11 11 12 12 13 12 14
2 1 1 1 1 1 0 0 0 0 0 0 2 6 7 3 0 1 4 7 6 5 4 8 5 10 7 7 7 7 6 9 12 10 8 10 12 13 13 13 13 13 12 11 11 10 11 11 12 14 15 14 15 16
2 1 1 1 1 1 0 0 0 0 0 3 6 7 2 1 2 5 8 8 8 9 7 6 7 9 5 10 9 7 10 9 12 11 11 12 13 14 13 13 13 13 13 12 12 12 13 13 13 14 15 15 16 16
2 2 1 1 1 0 1 0 1 1 2 2 4 4 5 6 7 9 10 9 9 10 8 8 7 6 6 5 9 8 11 10 13 8 11 13 15 14 14 14 14 14 14 14 14 14 14 15 14 15 16 17 18 18
3 3 2 2 2 1 2 2 2 2 2 3 6 9 8 10 12 12 13 11 11 9 8 8 9 8 7 7 8 10 12 12 9 12 14 15 15 15 14 14 15 14 15 15 16 16 16 17 16 17 18 18 18 19
3 3 3 3 3 3 3 4 4 4 5 8 10 14 13 14 13 13 12 11 10 10 9 9 8 9 9 10 11 13 12 11 14 15 18 16 15 15 15 14 15 16 16 16 17 18 18 19 19 18 19 19 19 20
2 3 4 4 4 4 5 5 6 7 9 12 12 16 15 14 13 13 12 11 11 10 10 9 10 9 11 13 13 13 15 16 16 17 16 15 15 15 15 16 16 17 17 18 18 19 19 19 19 20 19 19 19 20
3 3 4 5 4 5 6 6 7 8 10 13 15 16 14 14 14 14 13 12 11 12 9 9 12 13 15 14 16 18 16 17 18 16 15 15 16 16 16 16 16 17 17 18 18 18 19 19 19 19 19 19 19 20
3 4 3 5 6 6 7 8 10 13 14 15 16 14 15 15 16 14 13 13 11 11 12 12 15 17 14 17 19 17 19 17 16 16 15 15 16 17 17 17 17 17 17 17 17 18 18 18 17 18 19 18 18 19
4 3 3 4 5 7 9 10 13 14 17 16 17 16 15 14 15 14 13 12 11 12 13 16 14 17 19 21 19 19 17 17 16 16 17 17 17 17 17 17 17 17 18 18 18 17 17 17 18 18 18 18 19 19
4 3 4 5 6 8 12 12 12 17 16 15 15 15 15 15 14 13 13 12 12 12 14 15 18 19 19 17 18 18 17 17 18 18 18 18 18 18 18 18 18 18 18 17 18 18 18 18 18 17 17 17 18 17
4 5 5 6 6 10 13 14 11 15 17 16 15 17 17 17 15 15 15 15 15 16 19 20 20 19 18 17 17 17 17 17 17 19 19 18 18 18 17 17 17 17 17 17 17 17 17 17 17 18 17 17 18 19
5 5 6 5 7 9 12 14 15 15 15 17 17 17 18 17 18 18 18 16 19 20 21 20 19 18 17 16 16 16 16 16 16 16 17 17 16 16 17 17 17 17 17 17 17 18 18 19 18 18 18 19 19 19
6 6 6 7 10 11 12 12 14 14 15 16 16 17 19 19 19 19 18 20 21 20 19 18 18 17 18 17 16 16 16 16 16 17 17 17 17 17 17 17 17 18 18 18 18 18 19 18 18 18 18 18 17 17
7 7 9 10 13 13 14 11 15 14 16 16 16 19 19 19 18 16 19 18 18 16 16 17 17 16 17 17 17 17 16 17 17 17 17 18 17 17 17 17 17 18 18 18 17 17 18 20 19 17 17 16 16 17
10 14 15 14 13 16 14 15 14 15 15 17 18 20 20 18 17 18 21 19 18 16 16 16 16 17 17 17 17 18 17 16 17 17 16 17 18 18 17 18 17 17 17 17 17 18 18 18 20 17 17 17 17 16
15 19 16 18 16 16 17 17 18 17 19 18 19 19 19 16 19 20 20 19 17 18 17 17 17 16 17 17 17 17 17 16 16 18 17 16 17 17 17 17 17 17 16 16 17 17 18 18 17 17 17 16 17 18
21 20 19 19 18 17 17 19 18 18 17 19 19 18 17 18 20 21 19 18 17 17 17 16 16 16 17 16 17 17 17 16 15 17 17 17 17 16 16 17 17 18 17 16 16 16 17 18 17 19 17 19 21 19
22 22 20 19 18 18 19 18 17 17 19 20 19 20 19 23 23 20 18 17 17 17 16 16 15 15 17 17 18 17 17 17 17 18 17 17 17 17 16 17 19 17 16 16 16 16 17 17 17 17 17 16 17 18
21 21 23 24 23 21 22 22 21 22 21 19 19 24 24 23 22 19 18 18 17 17 17 17 17 16 17 18 18 18 18 18 18 18 17 17 17 17 18 17 18 19 16 17 16 17 17 17 17 17 18 18 18 18
22 21 22 27 24 23 24 24 22 21 20 20 21 22 22 21 20 18 18 18 17 17 18 19 20 19 19 19 19 17 17 17 19 21 21 18 17 17 17 16 16 16 16 16 20 18 17 18 18 18 19 18 19 19
23 20 24 25 26 25 23 22 22 21 20 19 19 20 20 20 20 17 17 17 17 18 18 18 19 17 19 18 19 20 19 19 19 18 18 18 17 17 17 17 17 17 17 17 17 18 19 18 19 19 19 19 19 20
21 21 23 23 24 23 22 20 20 19 19 20 19 20 21 20 19 19 20 20 20 20 19 19 20 19 18 19 17 18 18 20 22 21 19 18 18 17 18 19 18 18 18 18 19 19 19 19 19 21 20 21 23 23
22 24 24 25 23 21 20 20 19 20 19 19 20 19 20 19 21 20 20 19 18 18 21 18 17 18 19 19 20 20 22 19 19 20 20 18 18 19 18 18 19 18 18 19 19 20 21 21 21 21 21 22 23 24
21 21 21 21 22 21 21 20 20 20 20 20 22 22 23 21 23 20 20 21 19 18 18 18 19 20 20 20 19 20 19 19 21 20 22 22 23 21 18 18 18 19 20 20 19 20 21 22 22 22 22 23 23 23